Weather History for Aberdeen, SD

Change the Weather History Date:

Sunday, January 20, 2013

  Actual Average Record
Temperature  
Mean Temperature 2 °F 12 °F  
Max Temperature 10 °F 22 °F 60 °F (1944)
Min Temperature -7 °F 1 °F -29 °F (1936)
Degree Days  
Heating Degree Days 63 53  
Month to date heating degree days 967 1060  
Since 1 July heating degree days 4391 4551  
Cooling Degree Days 0 0  
Month to date cooling degree days 0 0  
Year to date cooling degree days 0 0  
Moisture  
Dew Point -5 °F    
Average Humidity 68    
Maximum Humidity 79    
Minimum Humidity 56    
Precipitation  
Precipitation 0.03 in 0.01 in 0.90 in (1937)
Month to date precipitation 0.10 0.32  
Year to date precipitation 0.10 0.32  
Snow  
Snow 0.30 in - - ()
Month to date snowfall 1.6  
Since 1 July snowfall 15.5  
Snow Depth T in    
Sea Level Pressure  
Sea Level Pressure 30.44 in    
Wind  
Wind Speed 13 mph (NW)    
Max Wind Speed 26 mph    
Max Gust Speed 32 mph    
Visibility 7 miles    
Events Snow    
T = Trace of Precipitation, MM = Missing Value Source: NWS Daily Summary

Daily Weather History Graph

Daily Weather History Graph

Search for Another Location

Airport:

Trip Planner

Search our weather history database for the weather conditions in past years. The results will help you decide how hot, cold, wet, or windy it might be!

Date:

Astronomy

Jan. 20, 2013 Rise Set
Actual Time 8:06 AM CST 5:23 PM CST
Civil Twilight 7:33 AM CST 5:56 PM CST
Nautical Twilight 6:57 AM CST 6:32 PM CST
Astronomical Twilight 6:22 AM CST 7:08 PM CST
Moon 12:26 PM CST (1/20) 2:38 AM CST (1/20)
Length of Visible Light 10h 23m
Length of Day
9h 17m
Waxing Gibbous, 66% of the Moon is Illuminated
Jan 20
Waxing Gibbous
Jan 26
Full
Feb 3
Last Quarter
Feb 10
New
Feb 17
First Quarter

Hourly Weather History & Observations

Time (CST) Temp. Windchill Dew Point Humidity Pressure Visibility Wind Dir Wind Speed Gust Speed Precip Events Conditions
12:53 AM 1.0 °F -12.9 °F -7.1 °F 69% 30.43 in 10.0 mi North 8.1 mph - N/A   Overcast
1:53 AM 1.9 °F -11.8 °F -7.1 °F 66% 30.43 in 10.0 mi North 8.1 mph - N/A   Overcast
2:53 AM 1.9 °F - -7.1 °F 66% 30.45 in 10.0 mi Calm Calm - N/A   Overcast
3:21 AM 1.4 °F -8.3 °F -5.8 °F 72% 30.35 in 2.0 mi North 4.6 mph - 0.00 in Snow Light Snow
3:36 AM 1.4 °F -6.2 °F -5.8 °F 72% 30.35 in 5.0 mi NE 3.5 mph - 0.00 in Snow Light Snow
3:53 AM 1.9 °F - -5.1 °F 72% 30.45 in 5.0 mi Calm Calm - 0.00 in Snow Light Snow
4:10 AM 1.4 °F - -5.8 °F 72% 30.34 in 2.5 mi Calm Calm - 0.00 in Snow Light Snow
4:19 AM 1.4 °F - -5.8 °F 72% 30.34 in 4.0 mi Calm Calm - 0.00 in Snow Light Snow
4:53 AM 1.9 °F - -4.0 °F 76% 30.43 in 2.5 mi Calm Calm - 0.00 in Snow Light Snow
5:06 AM 1.4 °F -9.9 °F -4.0 °F 78% 30.33 in 3.0 mi WSW 5.8 mph - 0.01 in Snow Light Snow
5:29 AM 1.4 °F -12.5 °F -2.2 °F 85% 30.33 in 2.5 mi WSW 8.1 mph - 0.01 in Snow Light Snow
5:45 AM 1.4 °F -11.3 °F -4.0 °F 78% 30.33 in 3.0 mi WSW 6.9 mph - 0.01 in Snow Light Snow
5:53 AM 3.0 °F -10.5 °F -2.9 °F 76% 30.44 in 2.5 mi WSW 8.1 mph - 0.01 in Snow Light Snow
6:04 AM 3.2 °F -9.1 °F -2.2 °F 78% 30.34 in 1.8 mi WSW 6.9 mph - 0.00 in Snow Light Snow
6:31 AM 3.2 °F -9.1 °F -2.2 °F 78% 30.35 in 2.0 mi West 6.9 mph - 0.01 in Snow Light Snow
6:49 AM 3.2 °F -9.1 °F -2.2 °F 78% 30.35 in 2.5 mi West 6.9 mph - 0.02 in Snow Light Snow
6:53 AM 3.9 °F -6.9 °F -2.0 °F 76% 30.45 in 2.5 mi West 5.8 mph - 0.02 in Snow Light Snow
7:08 AM 3.2 °F -9.1 °F -2.2 °F 78% 30.36 in 1.8 mi WNW 6.9 mph - 0.00 in Snow Light Snow
7:24 AM 3.2 °F -10.3 °F -2.2 °F 78% 30.36 in 2.5 mi WNW 8.1 mph - 0.00 in Snow Light Snow
7:33 AM 3.2 °F -7.8 °F -2.2 °F 78% 30.36 in 3.0 mi West 5.8 mph - 0.00 in Snow Light Snow
7:53 AM 3.9 °F -8.2 °F -2.0 °F 76% 30.47 in 5.0 mi WNW 6.9 mph - 0.00 in   Haze
8:53 AM 3.9 °F -6.9 °F -2.0 °F 76% 30.49 in 10.0 mi WNW 5.8 mph - N/A   Scattered Clouds
9:53 AM 6.1 °F -7.8 °F -2.0 °F 69% 30.51 in 10.0 mi WNW 9.2 mph - N/A   Mostly Cloudy
10:53 AM 8.1 °F -10.2 °F -0.0 °F 70% 30.52 in 10.0 mi NW 17.3 mph 23.0 mph N/A   Overcast
11:53 AM 9.0 °F -9.5 °F -0.0 °F 67% 30.51 in 10.0 mi NNW 18.4 mph - N/A   Overcast
12:40 PM 8.6 °F -11.0 °F -0.4 °F 67% 30.41 in 10.0 mi NNW 20.7 mph - N/A   Overcast
12:49 PM 8.6 °F -10.5 °F -2.2 °F 62% 30.41 in 10.0 mi NNW 19.6 mph - N/A   Overcast
12:53 PM 8.1 °F -10.2 °F -2.0 °F 64% 30.51 in 10.0 mi NNW 17.3 mph - N/A   Overcast
1:36 PM 8.6 °F -11.0 °F -2.2 °F 62% 30.40 in 10.0 mi NW 20.7 mph 26.5 mph N/A   Mostly Cloudy
1:53 PM 9.0 °F -11.4 °F -2.0 °F 61% 30.50 in 10.0 mi NNW 23.0 mph - N/A   Mostly Cloudy
2:03 PM 8.6 °F -11.0 °F -2.2 °F 62% 30.40 in 10.0 mi NNW 20.7 mph - N/A   Mostly Cloudy
2:14 PM 10.4 °F -7.2 °F -0.4 °F 62% 30.40 in 10.0 mi NW 17.3 mph 26.5 mph N/A   Mostly Cloudy
2:27 PM 8.6 °F -10.0 °F -2.2 °F 62% 30.39 in 10.0 mi NW 18.4 mph - N/A   Overcast
2:36 PM 8.6 °F -10.5 °F -2.2 °F 62% 30.39 in 10.0 mi NNW 19.6 mph 26.5 mph N/A   Overcast
2:50 PM 8.6 °F -10.0 °F -2.2 °F 62% 30.39 in 10.0 mi NNW 18.4 mph 27.6 mph N/A   Scattered Clouds
2:53 PM 9.0 °F -11.0 °F -2.9 °F 59% 30.49 in 10.0 mi NW 21.9 mph 27.6 mph N/A   Scattered Clouds
3:53 PM 7.0 °F -13.6 °F -5.1 °F 58% 30.49 in 10.0 mi NW 21.9 mph 29.9 mph N/A   Clear
4:53 PM 3.0 °F -19.7 °F -9.0 °F 57% 30.51 in 10.0 mi NW 24.2 mph 29.9 mph N/A   Clear
5:53 PM 1.0 °F -19.9 °F -9.9 °F 60% 30.51 in 10.0 mi NW 18.4 mph - N/A   Clear
6:53 PM -0.9 °F -17.4 °F -11.0 °F 62% 30.52 in 10.0 mi NW 10.4 mph - N/A   Clear
7:53 PM -2.0 °F -25.5 °F -14.1 °F 57% 30.52 in 10.0 mi NW 21.9 mph 28.8 mph N/A   Clear
8:53 PM -4.0 °F -28.6 °F -15.0 °F 59% 30.53 in 10.0 mi NW 23.0 mph 32.2 mph N/A   Clear
9:53 PM -6.0 °F -27.0 °F -17.0 °F 59% 30.52 in 10.0 mi NW 15.0 mph - N/A   Clear
10:53 PM -6.0 °F -27.7 °F -17.0 °F 59% 30.53 in 10.0 mi NW 16.1 mph 25.3 mph N/A   Clear
11:53 PM -7.1 °F -31.0 °F -17.0 °F 62% 30.52 in 10.0 mi WNW 19.6 mph 24.2 mph N/A   Clear